Other Public Products
Issued by NWS Grand Forks, ND

Home | Current Version | Previous Version | Graphics & Text | Print | Product List | Glossary On
Versions: 1 2 3 4 5 6 7 8 9 10 11 12 13 14 15 16 17 18 19 20 21 22 23 24 25 26 27 28 29 30 31 32 33 34 35 36 37 38 39 40 41 42 43 44 45 46 47 48 49 50
000
FPUS83 KFGF 231731
OPUFGF
PRAIRIE TO PINES WEATHER ROUNDUP
NATIONAL WEATHER SERVICE EASTERN NORTH DAKOTA/GRAND FORKS ND
1200 PM CDT TUE SEP 23 2014

 **SATELLITE DATA USED TO AUGMENT SKY COVER AT AUTOMATED STATIONS**
 *****  WEATHER ACROSS EASTERN NORTH DAKOTA  *****

CITY           SKY/WX    TMP DP  RH WIND       PRES   REMARKS
GRAND FORKS    MOSUNNY   70  55  59 S20G25    30.01F
GRAND FORKS AF SUNNY     70  56  60 S15       30.02S
GRAND CITY NWS   N/A     72 N/A N/A S12         N/A
BUXTON         NOT AVBL
DEVILS LAKE    SUNNY     72  55  56 S16       29.96S
FARGO          SUNNY     71  54  54 S13       30.04F
WAHPETON ARPT  MOSUNNY   70  50  49 S18G25    30.08S
$$

 *****  WEATHER ACROSS CENTRAL AND WESTERN NORTH DAKOTA  *****

CITY           SKY/WX    TMP DP  RH WIND       PRES   REMARKS
JAMESTOWN      PTSUNNY   66  57  72 S15       30.00S
BISMARCK       MOSUNNY   69  57  65 S13       29.93F
MINOT          SUNNY     71  56  58 S15       29.87F
MINOT AFB      SUNNY     70  58  66 S14       29.87F
GARRISON         N/A     69  58  67 S14G22    29.89F
WILLISTON      SUNNY     68  53  58 S5        29.86F
DICKINSON      SUNNY     71  58  63 S12       29.87F
HETTINGER      MOSUNNY   70  57  63 S9        29.91F
$$

 *****  OTHER OBSERVATIONS NORTHEAST NORTH DAKOTA  *****

CITY           SKY/WX    TMP DP  RH WIND       PRES   REMARKS
WALHALLA         N/A     70  59  68 SE13      29.97S
LANGDON        FAIR      73  55  53 S20G25    29.97S
CAVALIER       FAIR      68  55  64 S15       29.98S
GRAFTON        FAIR      70  55  60 S16G23    30.00S
CANDO          FAIR      72  55  56 S15G21    29.96S
FORT TOTTEN      N/A     70  55  59 S9        29.95
ROLLA          FAIR      70  55  60 S18G24    29.94S
RUGBY          FAIR      73  57  56 S14       29.92S
 ***** THE ABOVE OBSERVATIONS ARE NON NWS ARE NOT QUALITY
        CONTROLLED AND MAY MIS-REPORT RAIN FOR SNOW...
$$

 *****  OTHER OBSERVATIONS SOUTHEAST NORTH DAKOTA *****

CITY           SKY/WX    TMP DP  RH WIND       PRES   REMARKS
COOPERSTOWN    NOT AVBL
VALLEY CITY    FAIR      68  61  77 S14G24    30.02S
OAKES            N/A     66  59  77 S17G23    30.02S
GWINNER        SUNNY     70  55  60 S21       30.05S
BUFFALO          N/A     71  53  52 S14         N/A
WYNDMERE         N/A     72  55  56 S10         N/A
 ***** THE ABOVE OBSERVATIONS ARE NON NWS ARE NOT QUALITY
       CONTROLLED AND MAY MIS-REPORT RAIN FOR SNOW...
$$

  *****  WEATHER ACROSS NORTHERN MINNESOTA  *****

CITY           SKY/WX    TMP DP  RH WIND       PRES   REMARKS
FLAG ISLAND    SUNNY     63  54  72 S14       30.05S
WARROAD        SUNNY     72  57  60 SE9       30.05F
ROSEAU         SUNNY     73  55  53 S14       30.04F
HALLOCK        SUNNY     73  55  53 S20       29.99F
THF RVR FALLS  SUNNY     72  55  56 S13       30.04F
HALSTAD        NOT AVBL
FOSSTON        SUNNY     73  54  49 S14G22    30.08R
BAUDETTE       SUNNY     71  51  49 S16G22    30.08F
WASKISH        SUNNY     72  55  56 SE6       30.10S
CROOKSTON      SUNNY     72  55  56 S14       30.04S
$$
  *****  WEATHER ACROSS CENTRAL AND WEST MINNESOTA  *****

CITY           SKY/WX    TMP DP  RH WIND       PRES   REMARKS
BEMIDJI        SUNNY     71  51  49 S14       30.11S
PARK RAPIDS    SUNNY     69  52  54 S12       30.12F
WADENA         SUNNY     68  54  60 S12       30.13R
DETROIT LAKES  SUNNY     70  55  60 S13       30.11S
MOORHEAD       SUNNY     70  55  60 S13G20    30.07S
FERGUS FALLS   MOSUNNY   70  52  52 S18       30.10S
ELBOW LAKE     FAIR      69  55  62 S14       30.11F
MORRIS MN      MOSUNNY   70  54  56 S14G24    30.12S
STAPLES        SUNNY     66  52  59 S10       30.14S
WHEATON        MOSUNNY   64  52  63 S15G22    30.11S
$$
  *****  WEATHER ELSEWHERE ACROSS MINNESOTA  *****

CITY           SKY/WX    TMP DP  RH WIND       PRES   REMARKS
DULUTH         SUNNY     70  50  49 S10       30.20F
INTRNTL FALLS  SUNNY     71  51  49 VRB5      30.12F
ELY            SUNNY     72  48  43 S10       30.18F
CLOQUET        SUNNY     70  48  46 S15G22    30.20F
BRAINERD       SUNNY     69  51  52 S15       30.17S
HIBBING        SUNNY     71  50  47 S12G20    30.18F
ALEXANDRIA     MOSUNNY   68  52  56 S15       30.15S
SAINT CLOUD    MOSUNNY   71  52  50 S14       30.18F
MINNEAPOLIS    PTSUNNY   70  52  52 S12       30.22F
$$

  *****  WEATHER ACROSS SOUTH DAKOTA  *****

CITY           SKY/WX    TMP DP  RH WIND       PRES   REMARKS
SIOUX FALLS    LGT RAIN  58  56  93 S10       30.13F
BROOKINGS      NOT AVBL
WATERTOWN      CLOUDY    60  50  69 S21G26    30.10S
HURON          LGT RAIN  56  54  93 SE14G29   30.04S FOG
SISSETON         N/A     66  53  63 S14G23    30.07S
ABERDEEN       CLOUDY    61  57  87 SE17G30   30.03S
MITCHELL       LGT RAIN  57  56  96 SE15G24   30.06S
PIERRE         CLOUDY    64  56  75 SE20      29.92S
MOBRIDGE       CLOUDY    65  56  72 SE14      29.92F
RAPID CITY     CLOUDY    68  57  68 CALM      29.95R
$$

  *****  SOME WEATHER IN NEARBY STATES *****

CITY           SKY/WX    TMP DP  RH WIND       PRES   REMARKS
GLASGOW MT     SUNNY     66  51  58 W5        29.87S
GREAT FALLS MT MOSUNNY   73  48  41 SW16      30.01S
CHEYENNE WY    MOSUNNY   70  41  34 NW8       30.17R
SCOTTSBLUFF NE SUNNY     74  53  48 NW8       30.03F
OMAHA NE       CLOUDY    62  56  80 SE8       30.18S
DES MOINES IA  CLOUDY    69  53  56 S9        30.25F
DAVENPORT IA   SUNNY     70  46  42 S8        30.33F
CHICAGO IL     SUNNY     64  46  52 SW7       30.34S
EAU CLAIRE WI  SUNNY     70  52  52 S9        30.26F
LA CROSSE WI   SUNNY     71  54  54 S5        30.29F
$$

  *****  SOME NATIONAL WEATHER *****

CITY           SKY/WX    TMP DP  RH WIND       PRES   REMARKS
LA GUARDIA NY  MOSUNNY   66  41  40 CALM      30.32F
RALEIGH NC     CLOUDY    62  49  62 NE14      30.33S
ATLANTA GA     PTSUNNY   73  56  54 E12       30.22F
NEW ORLEANS LA MOSUNNY   81  57  43 NE13      30.10F
OKLAHOMA CITY  MOSUNNY   75  52  44 S10G22    30.20F
ALBUQUERQUE NM MOSUNNY   69  57  65 S9        30.30R
SALT LAKE CITY MOSUNNY   73  54  51 SE6       30.16S
LOS ANGELES CA MOSUNNY   68  63  83 W3        29.99S
BOISE ID       PTSUNNY   72  50  45 SE7       30.03R
SEATTLE WA     CLOUDY    62  57  83 S6        29.86R
$$

*** WEATHER ACROSS MANITOBA...SASKATCHEWAN AND ONTARIO ***
                ***ONTARIO***

CITY           SKY/WX    TMP DP  RH WIND       PRES   REMARKS
GERALDTON      PTSUNNY   54  54 100 SE8       30.22F
THUNDER BAY    SUNNY     70  54  56 E9        30.19S
SIOUX LOOKOUT  SUNNY     70  54  56 SW9       30.12F
TORONTO        MOSUNNY   70  52  52 W12       30.29R
BIG TROUT LK   CLOUDY    52  48  87 S15G25    30.00F FOG
PICKLE LAKE    MOSUNNY   70  54  56 S8        30.09F
DRYDEN         SUNNY     70  52  52 S14       30.11S
KENORA         SUNNY     68  52  56 S14G22    30.08F
$$
                *** MANITOBA***

CITY           SKY/WX    TMP DP  RH WIND       PRES   REMARKS
BRANDON        SUNNY     70  55  60 S12       29.90F
DAUPHIN        SUNNY     73  55  53 VRB2      29.83F
ISLAND LAKE    MOSUNNY   73  52  46 S6        29.86F
PILOT MOUND      N/A     72  55  56 S17G23      N/A
THE PAS        MOSUNNY   73  54  49 S9        29.69F
THOMPSON       PTSUNNY   70  54  56 SW10      29.67F
WINNIPEG       SUNNY     72  54  53 S23       29.97S
LYNN LAKE      MOSUNNY   68  52  56 W6        29.62S
CHURCHILL      CLOUDY    50  46  87 SW15G23   29.58
GILLAM         PTSUNNY   66  52  59 SW12      29.69F
$$
                ***SASKATCHEWAN***

CITY           SKY/WX    TMP DP  RH WIND       PRES   REMARKS
ESTEVAN        SUNNY     70  57  64 S3        29.86S
KINDERSLEY     MOSUNNY   66  50  55 NW7       29.82
LLOYDMINSTER   PTSUNNY   70  48  46 N13G21    29.81S
PRINCE ALBERT  PTSUNNY   68  54  60 W6        29.72S
REGINA         MOSUNNY   68  55  64 SE5       29.81F
YORKTON        SUNNY     70  54  56 S13       29.81F


USA.gov is the U.S. government's official web portal to all federal, state and local government web resources and services.